Weather in Podsvilie

Belarus     55°08′50″N   27°57′56″E
temp.,
°C
wind,
m/s
gust,
m/s
humid.,
%
clouds,
%
prec.,
mm/h
press.,
hPa
HPBL,
m
17 april, sat
sat1700:00+8ne41095100 0.0 1018296
03:00+9ene51095100 0.6 1018463
06:00+8ne5109497 0.0 1019451
09:00+9ene5990100 0.0 1020650
12:00+11ene588121 0.1 1020672
15:00+13ene576884 0.6 10211054
18:00+13ene58695 0.4 10201110
21:00+9ne4109267 0.5 1021254
18 april, sun
sun1800:00+10nne41187100 0.0 1020338
03:00+8ne5129393 0.0 1020314
06:00+6ne411945 0.0 1021276
09:00+9ne6107285 0.0 1021489
12:00+13ene68545 0.0 10211008
15:00+14ne67445 0.0 10211534
18:00+14ene57475 0.0 10211710
21:00+9ne34645 0.0 102249
19 april, mon
mon1900:00+7e22765 0.0 102319
03:00+6e35875 0.0 102367
06:00+7ene4108474 0.0 1023607
09:00+7ene4881100 0.0 1024670
12:00+10ene5766100 0.1 10241349
15:00+10e5661100 0.2 10231304
18:00+10ene3666100 0.1 1022949
21:00+7e488377 0.1 1023213
20 april, tue
tue2000:00+5ene3794100 0.0 1022178
03:00+6ne2490100 0.0 1021220
06:00+5e4684100 0.3 1020688
09:00+4e3695100 0.5 1019579
12:00+7ene6765100 0.1 10181277
15:00+8ene6654100 0.2 10171539
18:00+8ne565458 0.0 10151360
21:00+4nne3469100 0.0 101458
21 april, wed
wed2100:00+2nne33825 0.0 101255
03:00+1nnw488982 0.0 1010189
06:000nnw4109456 0.0 1009253
09:00+4nnw6977100 0.0 1007756
12:00+7nw6759100 0.0 10071438
15:00+8nw5859100 0.0 10071580
18:00+8wnw365692 0.0 1008975
21:00+6wsw347387 0.0 100965